DAL1303 KDTW-KBUF

Flight info

Callsign DAL1303
Flight time 0h 44m
Altitude 25000
Route HHOWE4 BROKK DKK
Aircraft A320/M-SDE3FGHIRWY/LB1

Departure

Time 2026-05-04 15:23
Airport Detroit Metropolitan Wayne County Airport (KDTW)

Arrival

Time 2026-05-04 16:07
Airport Buffalo Niagara International Airport (KBUF)
Time Latitude Longitude Altitude Speed Heading
2026-05-04 15:07 42.21371 -83.35343 648 ft 0 kts 298°
2026-05-04 15:16 42.21361 -83.35321 648 ft 4 kts 309°
2026-05-04 15:16 42.21327 -83.35300 648 ft 0 kts 25°
2026-05-04 15:18 42.21362 -83.35256 646 ft 18 kts 46°
2026-05-04 15:19 42.21562 -83.35073 647 ft 16 kts 40°
2026-05-04 15:19 42.21660 -83.34952 647 ft 20 kts 44°
2026-05-04 15:19 42.21830 -83.34698 646 ft 17 kts 76°
2026-05-04 15:20 42.21841 -83.34539 649 ft 15 kts 71°
2026-05-04 15:20 42.21948 -83.34430 647 ft 28 kts 29°
2026-05-04 15:20 42.22131 -83.34294 646 ft 21 kts 28°
2026-05-04 15:20 42.22272 -83.34192 646 ft 26 kts 29°
2026-05-04 15:21 42.22425 -83.34079 646 ft 24 kts 28°
2026-05-04 15:21 42.22562 -83.33978 646 ft 22 kts 28°
2026-05-04 15:21 42.22808 -83.33799 646 ft 15 kts 29°
2026-05-04 15:22 42.22857 -83.33721 645 ft 11 kts 100°
2026-05-04 15:22 42.22780 -83.33656 645 ft 25 kts 192°
2026-05-04 15:22 42.21705 -83.34450 653 ft 145 kts 210°
2026-05-04 15:23 42.20833 -83.35101 1268 ft 141 kts 210°
2026-05-04 15:23 42.19979 -83.35738 1978 ft 139 kts 212°
2026-05-04 15:23 42.19060 -83.36169 2643 ft 147 kts 192°
2026-05-04 15:23 42.17973 -83.35969 3020 ft 169 kts 176°
2026-05-04 15:24 42.15472 -83.35228 3856 ft 200 kts 176°
2026-05-04 15:24 42.12466 -83.34360 4854 ft 237 kts 171°
2026-05-04 15:25 42.10962 -83.33290 5602 ft 257 kts 144°
2026-05-04 15:25 42.09892 -83.31286 6420 ft 273 kts 117°
2026-05-04 15:25 42.09560 -83.28682 7042 ft 293 kts 89°
2026-05-04 15:26 42.10000 -83.23165 8720 ft 302 kts 77°
2026-05-04 15:26 42.10515 -83.20409 9584 ft 304 kts 76°
2026-05-04 15:26 42.11566 -83.14638 10470 ft 339 kts 73°
2026-05-04 15:27 42.12369 -83.11539 10692 ft 362 kts 69°
2026-05-04 15:27 42.14138 -83.05046 11921 ft 377 kts 69°
2026-05-04 15:28 42.15948 -82.98337 13394 ft 385 kts 68°
2026-05-04 15:28 42.16862 -82.94928 14049 ft 389 kts 68°
2026-05-04 15:28 42.18725 -82.87999 15290 ft 397 kts 68°
2026-05-04 15:29 42.19676 -82.84472 15869 ft 402 kts 68°
2026-05-04 15:30 42.23556 -82.69951 18228 ft 419 kts 67°
2026-05-04 15:30 42.25199 -82.58194 19818 ft 435 kts 85°
2026-05-04 15:31 42.25510 -82.49961 20897 ft 442 kts 85°
2026-05-04 15:31 42.25683 -82.45804 21414 ft 445 kts 84°
2026-05-04 15:32 42.26731 -82.33287 22913 ft 453 kts 80°
2026-05-04 15:32 42.27577 -82.24798 23759 ft 459 kts 80°
2026-05-04 15:33 42.28350 -82.16200 24552 ft 463 kts 81°
2026-05-04 15:34 42.29430 -82.03164 24776 ft 467 kts 81°
2026-05-04 15:34 42.29789 -81.98797 24776 ft 467 kts 81°
2026-05-04 15:34 42.30518 -81.90061 24779 ft 467 kts 81°
2026-05-04 15:35 42.31129 -81.82818 24784 ft 467 kts 81°
2026-05-04 15:35 42.31493 -81.78456 24790 ft 467 kts 81°
2026-05-04 15:35 42.31852 -81.74092 24812 ft 467 kts 81°
2026-05-04 15:36 42.32560 -81.65357 24817 ft 468 kts 82°
2026-05-04 15:36 42.32914 -81.60979 24819 ft 468 kts 81°
2026-05-04 15:36 42.33263 -81.56609 24820 ft 468 kts 82°
2026-05-04 15:37 42.33606 -81.52241 24814 ft 467 kts 82°
2026-05-04 15:37 42.33949 -81.47873 24814 ft 467 kts 82°
2026-05-04 15:37 42.34291 -81.43514 24818 ft 467 kts 82°
2026-05-04 15:37 42.34635 -81.39137 24814 ft 467 kts 82°
2026-05-04 15:38 42.34976 -81.34769 24819 ft 467 kts 82°
2026-05-04 15:38 42.35312 -81.30400 24820 ft 467 kts 82°
2026-05-04 15:38 42.35644 -81.26030 24830 ft 467 kts 82°
2026-05-04 15:38 42.35972 -81.21653 24827 ft 467 kts 82°
2026-05-04 15:39 42.36301 -81.17289 24832 ft 466 kts 82°
2026-05-04 15:39 42.36625 -81.12983 24822 ft 466 kts 82°
2026-05-04 15:39 42.37285 -81.04274 24833 ft 466 kts 82°
2026-05-04 15:40 42.37611 -80.99918 24828 ft 465 kts 82°
2026-05-04 15:40 42.37932 -80.95554 24825 ft 465 kts 82°
2026-05-04 15:40 42.38247 -80.91189 24822 ft 465 kts 82°
2026-05-04 15:40 42.38557 -80.86835 24829 ft 465 kts 82°
2026-05-04 15:41 42.38868 -80.82475 24831 ft 464 kts 82°
2026-05-04 15:41 42.39178 -80.78138 24831 ft 464 kts 82°
2026-05-04 15:41 42.39490 -80.73786 24828 ft 464 kts 82°
2026-05-04 15:41 42.39802 -80.69447 24830 ft 463 kts 82°
2026-05-04 15:42 42.40116 -80.65109 24824 ft 463 kts 82°
2026-05-04 15:42 42.40428 -80.60773 24826 ft 463 kts 82°
2026-05-04 15:42 42.40733 -80.56492 24823 ft 463 kts 82°
2026-05-04 15:42 42.41037 -80.52156 24828 ft 463 kts 82°
2026-05-04 15:43 42.41336 -80.47820 24824 ft 463 kts 82°
2026-05-04 15:43 42.41634 -80.43476 24828 ft 463 kts 82°
2026-05-04 15:43 42.41931 -80.39152 24827 ft 462 kts 82°
2026-05-04 15:43 42.42231 -80.34811 24826 ft 462 kts 82°
2026-05-04 15:44 42.42527 -80.30485 24821 ft 462 kts 82°
2026-05-04 15:44 42.42819 -80.26152 24821 ft 462 kts 82°
2026-05-04 15:44 42.43111 -80.21801 24821 ft 462 kts 82°
2026-05-04 15:44 42.43401 -80.17468 24820 ft 462 kts 82°
2026-05-04 15:45 42.43689 -80.13126 24826 ft 462 kts 82°
2026-05-04 15:45 42.43976 -80.08792 24824 ft 462 kts 82°
2026-05-04 15:45 42.44262 -80.04461 24822 ft 462 kts 82°
2026-05-04 15:45 42.44544 -80.00120 24822 ft 462 kts 82°
2026-05-04 15:46 42.44823 -79.95788 24821 ft 462 kts 82°
2026-05-04 15:46 42.45100 -79.91458 24695 ft 461 kts 82°
2026-05-04 15:46 42.45371 -79.87146 24453 ft 459 kts 82°
2026-05-04 15:46 42.45643 -79.82853 24217 ft 457 kts 82°
2026-05-04 15:47 42.45915 -79.78575 23983 ft 455 kts 82°
2026-05-04 15:47 42.46188 -79.74311 23748 ft 454 kts 82°
2026-05-04 15:47 42.46461 -79.70062 23515 ft 452 kts 82°
2026-05-04 15:47 42.46729 -79.65815 23250 ft 451 kts 82°
2026-05-04 15:48 42.46988 -79.61652 22993 ft 449 kts 83°
2026-05-04 15:48 42.47248 -79.57442 22718 ft 448 kts 83°
2026-05-04 15:48 42.47754 -79.49071 22175 ft 444 kts 83°
2026-05-04 15:49 42.48003 -79.44910 21903 ft 442 kts 83°
2026-05-04 15:49 42.48250 -79.40764 21640 ft 440 kts 83°
2026-05-04 15:49 42.48494 -79.36640 21376 ft 438 kts 83°
2026-05-04 15:49 42.48800 -79.32549 21117 ft 434 kts 77°
2026-05-04 15:50 42.49514 -79.28594 20851 ft 429 kts 68°
2026-05-04 15:50 42.50657 -79.24901 20602 ft 423 kts 58°
2026-05-04 15:50 42.52186 -79.21533 20379 ft 417 kts 50°
2026-05-04 15:50 42.53892 -79.18351 20128 ft 416 kts 50°
2026-05-04 15:51 42.55583 -79.15176 19877 ft 415 kts 50°
2026-05-04 15:51 42.57265 -79.12005 19631 ft 414 kts 50°
2026-05-04 15:51 42.58940 -79.08839 19384 ft 412 kts 50°
2026-05-04 15:51 42.60612 -79.05671 19137 ft 411 kts 50°
2026-05-04 15:52 42.62262 -79.02542 18826 ft 405 kts 50°
2026-05-04 15:52 42.63876 -78.99481 18349 ft 402 kts 50°
2026-05-04 15:52 42.65497 -78.96413 17923 ft 397 kts 50°
2026-05-04 15:52 42.67091 -78.93400 17686 ft 386 kts 50°
2026-05-04 15:53 42.68633 -78.90474 17027 ft 377 kts 50°
2026-05-04 15:53 42.70163 -78.87574 16526 ft 377 kts 51°
2026-05-04 15:53 42.71689 -78.84678 16025 ft 376 kts 51°
2026-05-04 15:53 42.73212 -78.81784 15527 ft 375 kts 51°
2026-05-04 15:54 42.74729 -78.78899 15099 ft 373 kts 51°
2026-05-04 15:54 42.76230 -78.76039 14562 ft 373 kts 51°
2026-05-04 15:54 42.77716 -78.73202 14035 ft 363 kts 50°
2026-05-04 15:54 42.79172 -78.70416 13482 ft 360 kts 51°
2026-05-04 15:55 42.80596 -78.67693 12975 ft 357 kts 51°
2026-05-04 15:55 42.82034 -78.64942 12468 ft 356 kts 51°
2026-05-04 15:55 42.83450 -78.62223 12197 ft 342 kts 51°
2026-05-04 15:55 42.84775 -78.59663 12061 ft 319 kts 51°
2026-05-04 15:56 42.86027 -78.57245 11724 ft 306 kts 50°
2026-05-04 15:56 42.87254 -78.54897 11181 ft 303 kts 50°
2026-05-04 15:56 42.88476 -78.52567 10624 ft 300 kts 50°
2026-05-04 15:56 42.89696 -78.50239 10467 ft 303 kts 50°
2026-05-04 15:57 42.90921 -78.47897 10325 ft 303 kts 51°
2026-05-04 15:57 42.92141 -78.45551 10191 ft 303 kts 51°
2026-05-04 15:57 42.93357 -78.43205 10039 ft 302 kts 51°
2026-05-04 15:57 42.94571 -78.40859 9676 ft 307 kts 51°
2026-05-04 15:58 42.95866 -78.38554 9183 ft 295 kts 40°
2026-05-04 15:58 42.97438 -78.37007 9055 ft 265 kts 18°
2026-05-04 15:58 42.99115 -78.36299 8758 ft 244 kts 359°
2026-05-04 15:58 43.00760 -78.36337 8289 ft 232 kts 341°
2026-05-04 15:59 43.02254 -78.37011 7796 ft 222 kts 325°
2026-05-04 15:59 43.03504 -78.38174 7293 ft 214 kts 310°
2026-05-04 15:59 43.04454 -78.39693 6817 ft 208 kts 296°
2026-05-04 15:59 43.05087 -78.41435 6300 ft 208 kts 288°
2026-05-04 16:00 43.05655 -78.43262 5720 ft 210 kts 288°
2026-05-04 16:00 43.06229 -78.45105 5191 ft 210 kts 288°
2026-05-04 16:00 43.06789 -78.46896 4916 ft 199 kts 287°
2026-05-04 16:00 43.07316 -78.48568 4780 ft 182 kts 287°
2026-05-04 16:01 43.07803 -78.50110 4683 ft 174 kts 287°
2026-05-04 16:01 43.08266 -78.51620 4577 ft 170 kts 282°
2026-05-04 16:01 43.08367 -78.53177 4453 ft 163 kts 258°
2026-05-04 16:01 43.07940 -78.54595 4300 ft 163 kts 235°
2026-05-04 16:02 43.07146 -78.55712 4109 ft 164 kts 227°
2026-05-04 16:02 43.06324 -78.56792 3887 ft 163 kts 227°
2026-05-04 16:02 43.04682 -78.58956 3455 ft 166 kts 225°
2026-05-04 16:03 43.03849 -78.60055 3228 ft 167 kts 224°
2026-05-04 16:03 43.03030 -78.61134 3013 ft 158 kts 224°
2026-05-04 16:03 43.02275 -78.62128 2805 ft 144 kts 225°
2026-05-04 16:03 43.01584 -78.63039 2637 ft 137 kts 224°
2026-05-04 16:04 43.00895 -78.63947 2447 ft 136 kts 225°
2026-05-04 16:04 42.99538 -78.65733 2083 ft 135 kts 225°
2026-05-04 16:04 42.98857 -78.66629 1895 ft 135 kts 224°
2026-05-04 16:05 42.98179 -78.67521 1716 ft 135 kts 223°
2026-05-04 16:05 42.97520 -78.68388 1538 ft 132 kts 225°
2026-05-04 16:05 42.96168 -78.70165 1177 ft 133 kts 225°
2026-05-04 16:06 42.95506 -78.71034 1001 ft 132 kts 226°
2026-05-04 16:06 42.93842 -78.73239 718 ft 95 kts 224°
2026-05-04 16:07 42.93509 -78.73651 715 ft 24 kts 202°
2026-05-04 16:07 42.93358 -78.73437 702 ft 0 kts 140°